Maryland Science Center, MD

12:01 AM EST on December 10, 2019 (GMT -0500)
Maryland Science Center

Weather History for KDMH - October, 2019

Change the Weather History Date:

Wednesday, October 16, 2019

  Actual Average Record
Temperature  
Mean Temperature 58 °F 60 °F  
Max Temperature 64 °F 68 °F 81 °F (2008)
Min Temperature 52 °F 52 °F 46 °F (2003)
Degree Days  
Heating Degree Days 7 6  
Month to date heating degree days 26 69  
Since 1 July heating degree days 26 87  
Cooling Degree Days 0 1  
Month to date cooling degree days 57 31  
Year to date cooling degree days 2046 1656  
Growing Degree Days 8 (Base 50)    
Moisture  
Dew Point 53 °F    
Average Humidity 77    
Maximum Humidity 100    
Minimum Humidity 54    
Precipitation  
Precipitation 1.37 in 0.09 in 1.62 in (2002)
Month to date precipitation 1.55 1.71  
Year to date precipitation 32.42 33.17  
Sea Level Pressure  
Sea Level Pressure 29.72 in    
Wind  
Wind Speed - (North)    
Max Wind Speed -    
Max Gust Speed -    
T = Trace of Precipitation, MM = Missing Value Source: NWS Daily Summary

Daily Weather History Graph

Daily Weather History Graph

Search for Another Location

Airport or City:

Astronomy

Oct. 16, 2019 Rise Set
Actual Time 7:16 AM EDT 6:26 PM EDT
Civil Twilight 6:49 AM EDT 6:53 PM EDT
Nautical Twilight 6:18 AM EDT 7:24 PM EDT
Astronomical Twilight 5:47 AM EDT 7:55 PM EDT
Moon 8:19 PM EDT (10/16) 9:44 AM EDT (10/16)
Length of Visible Light 12h 03m
Length of Day
11h 09m
Waning Gibbous, 93% of the Moon is Illuminated
Oct 16
Waning Gibbous
Oct 21
Last Quarter
Oct 27
New
Nov 4
First Quarter
Nov 12
Full

Hourly Weather History & Observations

Time (EDT) Temp. Dew Point Humidity Pressure Visibility Wind Dir Wind Speed Gust Speed Precip Events Conditions
12:54 AM 59.0 °F 53.1 °F 81% 30.01 in - North - - N/A   Unknown
1:54 AM 59.0 °F 53.1 °F 81% 30.01 in - North - - N/A   Unknown
2:54 AM 60.1 °F 55.0 °F 83% 29.98 in - North - - N/A   Unknown
3:54 AM 61.0 °F 57.9 °F 90% 29.94 in - North - - N/A   Unknown
4:54 AM 62.1 °F 59.0 °F 90% 29.93 in - North - - N/A   Unknown
5:54 AM 62.1 °F 59.0 °F 90% 29.90 in - North - - N/A   Unknown
7:54 AM 63.0 °F 60.1 °F 90% 29.89 in - North - - N/A   Unknown
8:54 AM 64.0 °F 60.1 °F 87% 29.84 in - North - - N/A   Unknown
9:54 AM 64.0 °F 60.1 °F 87% 29.81 in - North - - N/A   Unknown
10:54 AM 64.0 °F 60.1 °F 87% 29.73 in - North - - 0.01 in   Unknown
11:54 AM 63.0 °F 60.1 °F 90% 29.70 in - North - - 0.05 in   Unknown
12:54 PM 63.0 °F 62.1 °F 97% 29.65 in - North - - 0.28 in   Unknown
1:54 PM 63.0 °F 61.0 °F 93% 29.62 in - North - - 0.38 in   Unknown
4:54 PM 60.1 °F 55.9 °F 86% 29.48 in - North - - 0.03 in   Unknown
5:54 PM 60.1 °F 51.1 °F 72% 29.48 in - North - - N/A   Unknown
6:54 PM 59.0 °F 46.9 °F 64% 29.49 in - North - - N/A   Unknown
7:54 PM 57.0 °F 43.0 °F 59% 29.50 in - North - - N/A   Unknown
8:54 PM 55.9 °F 41.0 °F 57% 29.51 in - North - - N/A   Unknown
9:54 PM 55.0 °F 39.0 °F 55% 29.53 in - North - - N/A   Unknown
10:54 PM 53.1 °F 37.9 °F 57% 29.53 in - North - - N/A   Unknown
11:54 PM 53.1 °F 37.9 °F 57% 29.54 in - North - - N/A   Unknown